Showing default

COSMOS 198, 3081

Orbit data source: Space-Track

COSMOS 198, 3081 is a payload satellite owned by TSKBM (CIS) in LEO that was launched on Wed, 27 Dec 1967 UTC via a TSIKLON-2A launch vehicle from the Tyuratam Missile And Space Complex (TTMTR). Payload-class satellites include a variety of spacecraft equipped with specific instruments for various scientific and technological missions. These include communications satellites like Starlink; space stations such as the ISS; scientific satellites like the Hubble; Earth observation satellites from companies like Planet Labs, Umbra, and HawkEye 360; GPS; miniature CubeSats for education and research; and military/defense satellites.

Loading next visibility...
Identifier
3081, 1967-127A
Orbit
LEO
Country
Flag of CISCIS
Related business
Manufacturer
TSKBM/KB1
Mission
Spacecraft
Bus & Motor
US-A ROCH, Unknown motor
Mass
3,800 kg wet, 1,140 kg dry
Launch date (UTC)
1967-12-27 (58 years ago)
Launch vehicle
TSIKLON-2A
Launch site
Tyuratam Missile And Space Complex (TTMTR)
Object type
Payload
Rocket body
Debris
Shape & HBR
Unknown
Radar Cross Section
Large (>1 m²)

Expand to show TLE details & history
Last TLE update: 5 hours ago

TLE from 5 hours ago
0 COSMOS 198
1  3081U 67127A   26127.82207588 -.00000056  00000-0  25830-4 0  9997
2  3081  65.1448  27.3235 0012501  95.2845 264.9648 13.93391299967950
Epoch: 2026-05-07T19:43Z
TLE epoch observation values (Epoch: 2026-05-07T19:43:47.356Z)
Latitude
0.00001°
Longitude
-134.28652°
Altitude
919.531 km
Speed
7.392 km/s
True Right ascension
01h 49m 17s
True Declination
0° 00' 00"
Sunlit
Object was in daylight at epoch
Visualization orbit readout
Latitude
Unknown
Longitude
Unknown
Altitude
Unknown
Speed
Unknown
Apparent Right ascension
Unknown
Apparent Declination
Unknown
Sunlit
N/A
Visualization observer readout
Local Sidereal Time
09:09:46
Azimuth
Unknown
Elevation
Unknown
Doppler factor
Unknown
Orbital elements
Apogee altitude
924.474 km
Perigee altitude
906.239 km
Semi-major axis
7,293.493 km
Eccentricity
0.00125
Inclination
65.1448°
RAAN
27.3235°
Arg. of periapsis
95.2845°
True anomaly
264.82212°
Mean anomaly
264.9648°
Eccentric anomaly
264.89346°
Mean motion
3.48449 °/min
Orbital period
103.31 mins
BSTAR
0.00002583
Loading maneuver chart data...
Computing Atmospheric mass density...
Loading historical data...
Loading historical data...
Loading historical data...
Loading historical data...
Loading historical data...
Loading historical data...
Loading historical data...
Other satellites on launch #127 in the year 1967 (1967-12-27 UTC)

Documentation

Showing up to 5 results
|